AAY973 KPIE-KCAK

Flight info

Callsign AAY973
Flight time N/A
Altitude 37000
Route BAYPO2 CAMJO IRQ SPA J85 HVQ JPU ZZIPS1
Aircraft A320/M-SDE3FGHIRWY/LB1

Departure

Time 2026-05-08 20:32
Airport St. Petersburg Clearwater International Airport (KPIE)

Arrival

Time N/A
Airport Akron Canton Regional Airport (KCAK)
Time Latitude Longitude Altitude Speed Heading
2026-05-08 19:57 27.90757 -82.69160 28 ft 0 kts 179°
2026-05-08 19:57 27.90758 -82.69160 29 ft 0 kts 179°
2026-05-08 20:02 27.90757 -82.69160 53 ft 0 kts 179°
2026-05-08 20:03 27.90758 -82.69160 52 ft 0 kts 179°
2026-05-08 20:07 27.90757 -82.69160 52 ft 11 kts 179°
2026-05-08 20:07 27.90758 -82.69160 26 ft 0 kts 179°
2026-05-08 20:08 27.90757 -82.69160 25 ft 11 kts 179°
2026-05-08 20:08 27.90758 -82.69160 24 ft 0 kts 179°
2026-05-08 20:25 27.90777 -82.69161 25 ft 4 kts 179°
2026-05-08 20:25 27.90801 -82.69161 26 ft 2 kts 179°
2026-05-08 20:25 27.90824 -82.69167 26 ft 4 kts 137°
2026-05-08 20:25 27.90834 -82.69191 24 ft 4 kts 92°
2026-05-08 20:26 27.90834 -82.69213 25 ft 0 kts 89°
2026-05-08 20:28 27.90834 -82.69211 27 ft 0 kts 89°
2026-05-08 20:28 27.90835 -82.69195 24 ft 7 kts 89°
2026-05-08 20:28 27.90836 -82.69099 24 ft 14 kts 89°
2026-05-08 20:28 27.90841 -82.69000 24 ft 12 kts 75°
2026-05-08 20:29 27.90906 -82.68978 24 ft 10 kts 350°
2026-05-08 20:29 27.90978 -82.68991 24 ft 15 kts 351°
2026-05-08 20:29 27.91138 -82.69019 23 ft 31 kts 351°
2026-05-08 20:29 27.91379 -82.69062 24 ft 33 kts 351°
2026-05-08 20:30 27.91594 -82.69100 24 ft 30 kts 351°
2026-05-08 20:30 27.91804 -82.69135 24 ft 31 kts 351°
2026-05-08 20:30 27.92020 -82.69173 24 ft 32 kts 351°
2026-05-08 20:30 27.92228 -82.69210 23 ft 21 kts 351°
2026-05-08 20:31 27.92314 -82.69174 23 ft 13 kts 61°
2026-05-08 20:31 27.92323 -82.69076 24 ft 12 kts 121°
2026-05-08 20:31 27.92281 -82.69060 22 ft 0 kts 170°
2026-05-08 20:31 27.92276 -82.69059 23 ft 5 kts 170°
2026-05-08 20:32 27.91987 -82.69010 22 ft 79 kts 171°
2026-05-08 20:32 27.91245 -82.68881 20 ft 138 kts 171°
2026-05-08 20:32 27.90157 -82.68686 214 ft 167 kts 174°
2026-05-08 20:32 27.89004 -82.68480 830 ft 172 kts 169°
2026-05-08 20:33 27.87816 -82.68070 1387 ft 183 kts 167°
2026-05-08 20:33 27.86510 -82.67810 1662 ft 203 kts 177°
2026-05-08 20:33 27.85037 -82.67794 1922 ft 211 kts 194°
2026-05-08 20:33 27.83761 -82.68471 2686 ft 203 kts 223°
2026-05-08 20:34 27.82992 -82.69814 3105 ft 214 kts 255°
2026-05-08 20:34 27.83020 -82.71553 3321 ft 236 kts 289°
2026-05-08 20:34 27.85159 -82.74738 4206 ft 269 kts 314°